[[{"header":{"parameterUnit":"m.s-1","parameterCategory":2,"la1":30.2991,"la2":30.254,"lo1":-89.0895,"lo2":-89.0444,"dy":0.0017,"dx":0.0017,"nx":28,"ny":28,"refTime":"2024-07-06T09:00:00:Z","depth":"0","parameterNumber":2,"parameterNumberName":"U-component_of_CURRENTS"},"data":[0,0,0,0,0,0,0,0,0,0,0,0,0,0,0,0,0,0,0,0,0,0,0,0,0,0,0,0,0,0,0,0,0,0,0,0,0,0,0,0,0,0,0,0,0,0,0,0,0,0,0,0,0,0,0,0,0,0,0.1252,0.1253,0,0.1283,0.1284,0.1284,0.1278,0.1278,0.1277,0.1277,0.1413,0.1416,0.1421,0,0,0,0,0,0,0,0,0,0,0,0,0,0.1152,0.1154,0.1252,0.1253,0.1253,0.1283,0.1284,0.1284,0.1278,0.1277,0.1277,0.1276,0.1411,0.1416,0.1421,0,0,0,0,0,0,0,0,0,0,0,0,0,0.119,0.1155,0.1252,0.1254,0.1255,0.1283,0.1284,0.1284,0.1278,0.1277,0.1277,0.1276,0.141,0.1416,0.1422,0.1474,0,0,0.144,0.1443,0,0,0,0,0,0,0,0,0.1188,0.1194,0.1254,0.1254,0.1255,0.1277,0.1298,0.1353,0.1278,0.1268,0.1277,0.1276,0.1378,0.1387,0.1391,0.148,0.1486,0.1441,0.1444,0.1447,0.1449,0,0,0,0,0,0,0,0.1186,0.1192,0.1264,0.1254,0.1255,0.1242,0.1247,0.1308,0.1328,0.1269,0.1269,0.1274,0.1379,0.1385,0.1395,0.1488,0.1441,0.1446,0.145,0.1452,0.1752,0.1756,0,0,0,0,0,0,0.1187,0.119,0.1263,0.1265,0.122,0.1245,0.125,0.127,0.1325,0.1332,0.1275,0.1274,0.1375,0.1388,0.14,0.1536,0.1447,0.1453,0.1456,0.1747,0.1753,0.1757,0,0,0,0,0,0,0.1185,0.1193,0.1261,0.1227,0.1235,0.1247,0.127,0.1271,0.1275,0.1328,0.1337,0.1278,0.1375,0.1391,0.1487,0.1539,0.1455,0.1461,0.1742,0.1749,0.1755,0.1764,0,0,0,0,0,0,0.1182,0.1193,0.1208,0.1228,0.1237,0.1283,0.1271,0.1272,0.128,0.1279,0.1335,0.1346,0.1376,0.1478,0.1493,0.1546,0.1466,0.1737,0.1745,0.1753,0.1759,0.177,0.178,0,0,0,0,0,0.1178,0.1206,0.1209,0.1217,0.1258,0.1284,0.1288,0.1292,0.1281,0.1291,0.1349,0.1344,0.154,0.1486,0.1502,0.1558,0.1733,0.1743,0.1752,0.1754,0.1768,0.178,0,0,0,0,0,0,0.1166,0.1209,0.1212,0.125,0.1266,0.1284,0.1297,0.1294,0.1341,0.1347,0.1388,0.1406,0.1511,0.1547,0.1486,0.1678,0.1641,0.1654,0.1637,0.1651,0.1661,0.1733,0.1471,0,0,0,0,0,0.1172,0.1208,0.1233,0.1262,0.1273,0.1283,0.1293,0.1294,0.1336,0.1352,0.1393,0.147,0.1566,0.1613,0.1687,0.1784,0.1865,0.1842,0.1852,0.1861,0.1938,0.2082,0.2112,0.1789,0.1789,0.1789,0,0,0.1174,0.1203,0.1221,0.1262,0.1276,0.1319,0.1287,0.1307,0.1364,0.1367,0.1457,0.1499,0.1601,0.1713,0.1765,0.1748,0.1993,0.1873,0.1879,0.1954,0.2095,0.2127,0.2154,0.1796,0.1794,0.1793,0,0,0.1205,0.1223,0.1266,0.1287,0.1314,0.1335,0.1341,0.1363,0.1395,0.1472,0.1515,0.1622,0.1704,0.1828,0.1896,0.2029,0.2039,0.2009,0.2126,0.2262,0.2289,0.2315,0.2431,0.2467,0.202,0.202,0.202,0,0.1204,0.1267,0.1277,0.1322,0.1358,0.1349,0.1405,0.1445,0.1497,0.1571,0.1509,0.1737,0.1795,0.2021,0.2059,0.2059,0.2106,0.2047,0.2273,0.2301,0.2326,0.244,0.2479,0.2021,0.2021,0.2021,0.2021,0,0.1283,0.1318,0.1342,0.1415,0.1452,0.149,0.1549,0.1601,0.162,0.1674,0.1846,0.1925,0.208,0.2094,0.2114,0.2339,0.23,0.2253,0.2225,0.2359,0.247,0.2511,0.2024,0.2023,0.2023,0.2022,0,0,0.1333,0.1387,0.1399,0.1441,0.1505,0.1551,0.1666,0.1795,0.1909,0.1949,0.2115,0.2274,0.2296,0.2384,0.2414,0.2531,0.2726,0.2458,0.2464,0.2551,0.2999,0.2956,0.2996,0.2668,0.2676,0.2682,0.2991,0,0.1395,0.148,0.1511,0.1613,0.1665,0.1717,0.1835,0.195,0.2038,0.2186,0.2309,0.2459,0.2412,0.2474,0.2594,0.2704,0.2838,0.2648,0.2883,0.2893,0.2819,0.3045,0.2974,0.3243,0.3031,0.3038,0.3042,0,0.1489,0.153,0.1627,0.1728,0.1764,0.1835,0.2042,0.2143,0.2355,0.2427,0.2593,0.265,0.2894,0.2776,0.3088,0.294,0.3006,0.306,0.3071,0.3079,0.293,0.3087,0.3325,0.3231,0.3105,0.31,0.3096,0,0.1545,0.1629,0.1711,0.1743,0.1855,0.1943,0.2027,0.2226,0.2362,0.2593,0.2706,0.2935,0.3071,0.3202,0.331,0.3204,0.3596,0.3468,0.3514,0.3508,0.3538,0.3522,0.371,0.3718,0.3717,0.3716,0.3715,0,0.1628,0.1695,0.1737,0.1783,0.1927,0.1988,0.2185,0.2309,0.2513,0.2717,0.283,0.3024,0.3172,0.3372,0.3427,0.3631,0.3714,0.3638,0.363,0.3533,0.3515,0.3501,0.343,0.3728,0.3725,0.3723,0.3721,0,0.1719,0.1718,0.1824,0.192,0.1951,0.2072,0.2244,0.2409,0.2568,0.2836,0.2915,0.3164,0.3435,0.3577,0.3828,0.3814,0.3902,0.4014,0.388,0.3852,0.3751,0.3683,0.3766,0.369,0.4152,0.4153,0.4155,0,0.1792,0.1843,0.1927,0.2002,0.2053,0.2194,0.2313,0.2443,0.2611,0.293,0.3079,0.3376,0.3575,0.3925,0.402,0.419,0.4023,0.4171,0.3989,0.3842,0.3762,0.3516,0.3427,0.4027,0.4027,0.4027,0.4027,0,0.1976,0.1987,0.2081,0.218,0.2285,0.2394,0.2543,0.2634,0.283,0.3005,0.3257,0.3409,0.3762,0.3921,0.4126,0.4185,0.3987,0.4174,0.4095,0.3795,0.3481,0.3366,0.3694,0.4028,0.4028,0.4028,0.4028,0.4028,0.2167,0.2244,0.2324,0.2422,0.251,0.257,0.2627,0.2764,0.2915,0.3119,0.3298,0.348,0.3768,0.4049,0.4099,0.4127,0.4015,0.402,0.399,0.3783,0.3601,0.3922,0.417,0.4171,0.4172,0.4172,0.4173,0,0.2406,0.2442,0.2559,0.2625,0.2689,0.2682,0.2781,0.2798,0.2881,0.3095,0.3239,0.3507,0.3713,0.3913,0.4081,0.3964,0.3742,0.3864,0.3537,0.3489,0.3893,0.3775,0.3858,0.3858,0.3858,0.3858,0.3858,0.3859,0.2553,0.267,0.2649,0.2743,0.2769,0.2767,0.2764,0.2773,0.2862,0.2985,0.3111,0.3255,0.3564,0.3897,0.3928,0.3841,0.3527,0.3382,0.3334,0.3641,0.3651,0.366,0.3534,0.3565,0.3565,0.2802,0.2797,0.2793]},{"header":{"parameterUnit":"m.s-1","parameterCategory":2,"la1":30.2991,"la2":30.254,"lo1":-89.0895,"lo2":-89.0444,"dy":0.0017,"dx":0.0017,"nx":28,"ny":28,"refTime":"2024-07-06T09:00:00:Z","depth":"0","parameterNumber":3,"parameterNumberName":"V-component_of_CURRENTS"},"data":[0,0,0,0,0,0,0,0,0,0,0,0,0,0,0,0,0,0,0,0,0,0,0,0,0,0,0,0,0,0,0,0,0,0,0,0,0,0,0,0,0,0,0,0,0,0,0,0,0,0,0,0,0,0,0,0,0,0,-0.0034,-0.0034,0,-0.0015,-0.0015,-0.0015,0.0028,0.0029,0.003,0.0031,0.0175,0.0177,0.018,0,0,0,0,0,0,0,0,0,0,0,0,0,-0.0065,-0.0065,-0.0034,-0.0034,-0.0033,-0.0015,-0.0015,-0.0015,0.0028,0.0029,0.0031,0.0032,0.0174,0.0177,0.018,0,0,0,0,0,0,0,0,0,0,0,0,0,-0.0052,-0.0065,-0.0034,-0.0008,-0.0005,-0.0015,-0.0015,-0.0015,0.0028,0.0029,0.0031,0.0033,0.0173,0.0177,0.0181,0.0172,0,0,0.0194,0.0195,0,0,0,0,0,0,0,0,-0.0053,-0.0051,-0.0012,-0.0009,-0.0006,0.0008,0.0027,0.0055,0.0027,0.0012,0.0031,0.0033,0.0131,0.0139,0.0133,0.0179,0.0185,0.0194,0.0196,0.0198,0.0199,0,0,0,0,0,0,0,-0.0054,-0.0052,-0.0029,-0.0012,-0.0008,-0.0007,-0.0003,0.0032,0.0062,0.0014,0.0018,0.0024,0.0134,0.0129,0.0137,0.0187,0.0194,0.0197,0.02,0.0202,0.0297,0.0297,0,0,0,0,0,0,-0.0051,-0.0053,-0.003,-0.0028,-0.0023,-0.0008,-0.0004,-0.0,0.0059,0.007,0.0022,0.0026,0.0121,0.0132,0.0143,0.0225,0.0198,0.0202,0.0204,0.0297,0.0297,0.0297,0,0,0,0,0,0,-0.0052,-0.0049,-0.0031,-0.0038,-0.0035,-0.0008,-0.0005,-0.0001,-0.0006,0.0065,0.0077,0.0013,0.0123,0.0137,0.0195,0.0228,0.0204,0.0208,0.0297,0.0297,0.0297,0.0335,0,0,0,0,0,0,-0.0053,-0.005,-0.0057,-0.0038,-0.0034,-0.004,-0.0007,-0.0002,-0.0003,0.0001,0.0061,0.0076,0.0125,0.0188,0.0199,0.0234,0.0211,0.0297,0.0297,0.0297,0.0333,0.0336,0.0338,0,0,0,0,0,-0.0054,-0.0068,-0.0058,-0.0055,-0.0042,-0.004,-0.004,-0.0017,-0.0006,-0.0015,0.0046,0.0074,0.0196,0.0192,0.0204,0.0241,0.0297,0.0297,0.0297,0.0332,0.0336,0.0338,0,0,0,0,0,0,-0.0093,-0.0065,-0.0053,-0.006,-0.0052,-0.0032,-0.0041,-0.0029,0.0002,0.0015,0.0079,0.0099,0.0161,0.018,0.0173,0.0263,0.0248,0.0251,0.0271,0.0274,0.0277,0.0379,0.0214,0,0,0,0,0,-0.0104,-0.0104,-0.0081,-0.009,-0.0086,-0.0069,-0.007,-0.0054,-0.0019,-0.0006,0.0042,0.0098,0.0165,0.0203,0.0247,0.0295,0.0316,0.0321,0.0323,0.0326,0.0413,0.0441,0.0455,0.0297,0.0297,0.0297,0,0,-0.0124,-0.0108,-0.011,-0.0098,-0.0091,-0.0052,-0.0066,-0.0069,-0.0005,0.0007,0.009,0.0103,0.0175,0.0243,0.0271,0.0271,0.0364,0.0326,0.0328,0.0417,0.0443,0.0459,0.0473,0.0297,0.0297,0.0297,0,0,-0.0143,-0.0148,-0.0142,-0.0127,-0.011,-0.0076,-0.0077,-0.0058,-0.002,0.0036,0.008,0.0137,0.0192,0.0287,0.0338,0.0378,0.0368,0.0341,0.0458,0.048,0.0495,0.0509,0.0486,0.0498,0.0352,0.0352,0.0352,0,-0.0162,-0.0135,-0.0146,-0.0121,-0.0072,-0.0076,-0.002,0.001,0.0052,0.0137,0.0071,0.0226,0.0248,0.0426,0.0431,0.0399,0.0374,0.0442,0.0488,0.0503,0.0516,0.0491,0.0503,0.0354,0.0354,0.0354,0.0353,0,-0.0152,-0.0127,-0.0126,-0.0059,-0.002,0.0007,0.008,0.0134,0.0167,0.0228,0.0354,0.0363,0.0486,0.0455,0.0464,0.0584,0.0516,0.0477,0.049,0.0536,0.0503,0.0515,0.0357,0.0356,0.0355,0.0355,0,0,-0.0168,-0.0121,-0.0112,-0.0041,0.0028,0.0081,0.0206,0.0359,0.0509,0.049,0.0667,0.0719,0.0711,0.0769,0.0747,0.0759,0.0775,0.0655,0.0655,0.0652,0.0775,0.0744,0.0753,0.0712,0.0716,0.0719,0.0688,0,-0.0134,-0.0061,-0.0027,0.0103,0.017,0.0258,0.04,0.0538,0.0646,0.0796,0.0826,0.0945,0.0833,0.0872,0.0871,0.083,0.0821,0.0786,0.0721,0.0721,0.0704,0.0774,0.0725,0.0698,0.0701,0.0703,0.0704,0,-0.01,-0.0037,0.0072,0.0259,0.0304,0.0397,0.0696,0.0813,0.1031,0.1113,0.1227,0.1227,0.1308,0.1143,0.1127,0.1091,0.096,0.0877,0.0872,0.0874,0.0719,0.0666,0.0721,0.0483,0.0724,0.0722,0.0721,0,-0.0052,0.0062,0.0173,0.022,0.0405,0.0533,0.0668,0.092,0.1094,0.1316,0.1443,0.1507,0.1547,0.1425,0.1261,0.1183,0.1187,0.1056,0.0909,0.0901,0.0881,0.0867,0.0741,0.1038,0.1038,0.1038,0.1038,0,0.0005,0.011,0.0202,0.0269,0.0494,0.0595,0.0874,0.1053,0.1294,0.1541,0.1587,0.1756,0.161,0.1586,0.1371,0.1217,0.1276,0.0995,0.093,0.0879,0.0867,0.0677,0.0542,0.1037,0.1037,0.1037,0.1037,0,0.0079,0.0097,0.0264,0.0444,0.051,0.069,0.0977,0.1194,0.1404,0.1718,0.1786,0.1953,0.1959,0.1795,0.1629,0.1394,0.1087,0.1131,0.1068,0.1,0.0621,0.0491,0.0436,0.0309,0.0973,0.0972,0.0972,0,0.0148,0.0214,0.039,0.05,0.0592,0.0823,0.1003,0.1238,0.1466,0.1852,0.2004,0.2125,0.2245,0.2017,0.167,0.1354,0.1117,0.1052,0.0926,0.0664,0.0469,0.0413,0.0305,0.086,0.0859,0.0858,0.0857,0,0.035,0.0377,0.0506,0.0671,0.0846,0.1064,0.1314,0.1483,0.179,0.204,0.2356,0.247,0.2333,0.2057,0.1654,0.1392,0.0886,0.102,0.0783,0.0446,0.0351,0.0175,0.0772,0.0849,0.0849,0.085,0.085,0.0851,0.0543,0.0646,0.0751,0.0919,0.1092,0.1303,0.1495,0.1732,0.2047,0.2421,0.2525,0.2716,0.2343,0.1824,0.1473,0.0799,0.0818,0.0524,0.0403,0.0384,0.0244,0.0824,0.081,0.081,0.0811,0.0811,0.0812,0,0.0797,0.0846,0.1005,0.1187,0.1366,0.1418,0.1715,0.1895,0.2209,0.2503,0.2738,0.2673,0.2122,0.1594,0.0731,0.0241,0.0065,-0.0016,-0.014,-0.0215,0.0323,0.0296,0.0132,0.0132,0.0132,0.0133,0.0133,0.0133,0.0954,0.1093,0.1103,0.1386,0.1509,0.1768,0.1923,0.216,0.238,0.2701,0.2825,0.2911,0.2537,0.1001,-0.0054,-0.0302,-0.0644,-0.0688,-0.0841,-0.0542,-0.0502,-0.0464,-0.052,-0.0853,-0.0854,-0.134,-0.1346,-0.135]}],[{"header":{"parameterUnit":"m.s-1","parameterCategory":2,"la1":30.2991,"la2":30.254,"lo1":-89.0895,"lo2":-89.0444,"dy":0.0017,"dx":0.0017,"nx":28,"ny":28,"refTime":"2024-07-06T09:00:00:Z","depth":"2","parameterNumber":2,"parameterNumberName":"U-component_of_CURRENTS"},"data":[0,0,0,0,0,0,0,0,0,0,0,0,0,0,0,0,0,0,0,0,0,0,0,0,0,0,0,0,0,0,0,0,0,0,0,0,0,0,0,0,0,0,0,0,0,0,0,0,0,0,0,0,0,0,0,0,0,0,0.0854,0.0854,0,0.0869,0.0869,0.0869,0.0868,0.0868,0.0867,0.0867,0.0721,0.0717,0.0714,0,0,0,0,0,0,0,0,0,0,0,0,0,0.0847,0.0847,0.0854,0.0854,0.0854,0.0869,0.0869,0.0869,0.0868,0.0868,0.0867,0.0867,0.0722,0.0718,0.0713,0,0,0,0,0,0,0,0,0,0,0,0,0,0.0854,0.0847,0.0854,0.0856,0.0856,0.0869,0.0869,0.0869,0.0868,0.0868,0.0867,0.0867,0.0724,0.0718,0.0713,0.0683,0,0,0.0695,0.0693,0,0,0,0,0,0,0,0,0.0853,0.0854,0.0855,0.0856,0.0856,0.0867,0.0813,0.0799,0.0868,0.0862,0.0867,0.0867,0.0755,0.0747,0.0752,0.0676,0.067,0.0695,0.0692,0.0689,0.0688,0,0,0,0,0,0,0,0.0853,0.0853,0.0859,0.0856,0.0856,0.0865,0.0865,0.0811,0.0806,0.0863,0.0863,0.0866,0.0754,0.0757,0.0748,0.0667,0.0695,0.069,0.0687,0.0684,0.07,0.0704,0,0,0,0,0,0,0.0852,0.0853,0.0859,0.086,0.0855,0.0865,0.0865,0.0863,0.0811,0.0804,0.0867,0.0866,0.0767,0.0754,0.0742,0.0827,0.0689,0.0684,0.0681,0.0697,0.0701,0.0705,0,0,0,0,0,0,0.0852,0.0852,0.0858,0.0858,0.0859,0.0865,0.0863,0.0864,0.088,0.0815,0.0805,0.0884,0.0766,0.075,0.0729,0.0816,0.0681,0.0676,0.0692,0.0698,0.0703,0.0917,0,0,0,0,0,0,0.0851,0.0852,0.0857,0.0857,0.0859,0.0879,0.0863,0.0864,0.0882,0.0882,0.0826,0.0812,0.0765,0.0738,0.0724,0.0806,0.0672,0.0687,0.0695,0.0701,0.0905,0.0929,0.095,0,0,0,0,0,0.0851,0.0861,0.0857,0.0858,0.0863,0.088,0.0882,0.0885,0.0884,0.0898,0.0874,0.0815,0.0775,0.0736,0.0718,0.0801,0.0684,0.0693,0.0701,0.0895,0.0924,0.0949,0,0,0,0,0,0,0.0866,0.0862,0.0857,0.0866,0.0877,0.088,0.0897,0.0897,0.0893,0.0893,0.0833,0.0818,0.0859,0.0785,0.0744,0.0831,0.0731,0.0737,0.0885,0.0912,0.0934,0.0974,0.0667,0,0,0,0,0,0.087,0.0879,0.0875,0.089,0.0893,0.0898,0.0908,0.0911,0.0905,0.0906,0.088,0.0861,0.0879,0.0855,0.0851,0.0852,0.0844,0.0905,0.0927,0.0947,0.0971,0.1039,0.107,0.0733,0.0733,0.0733,0,0,0.0881,0.0883,0.0888,0.0895,0.0903,0.0932,0.0904,0.0928,0.0972,0.0884,0.0937,0.0939,0.0904,0.0954,0.0963,0.0894,0.1045,0.0957,0.0974,0.0988,0.1051,0.1084,0.1113,0.0739,0.0738,0.0737,0,0,0.0922,0.091,0.0934,0.0949,0.0967,0.0967,0.0979,0.0996,0.102,0.1052,0.1051,0.1096,0.1068,0.1099,0.11,0.1227,0.1182,0.1236,0.1352,0.1419,0.1447,0.1472,0.1532,0.156,0.1221,0.1222,0.1222,0,0.0941,0.0962,0.0947,0.0984,0.0999,0.099,0.1024,0.1059,0.1079,0.1101,0.1089,0.1178,0.115,0.125,0.1328,0.1282,0.1311,0.1252,0.145,0.1474,0.1496,0.155,0.1579,0.1233,0.1232,0.1231,0.123,0,0.0989,0.1024,0.1044,0.1081,0.1096,0.1125,0.1153,0.1183,0.1204,0.124,0.1351,0.1369,0.1411,0.1447,0.1428,0.1593,0.1565,0.1493,0.1384,0.1543,0.159,0.1616,0.1249,0.1245,0.1242,0.1239,0,0,0.1004,0.1061,0.1076,0.1111,0.1143,0.1164,0.1226,0.1272,0.1323,0.1402,0.1506,0.161,0.1644,0.1655,0.1674,0.1753,0.1953,0.1711,0.1709,0.1776,0.2125,0.1993,0.2007,0.1928,0.1933,0.1937,0.2106,0,0.1051,0.1126,0.1137,0.1224,0.1261,0.1262,0.1318,0.1367,0.1411,0.1515,0.1608,0.1732,0.1718,0.1792,0.1874,0.1946,0.2029,0.1915,0.1955,0.1957,0.1824,0.2035,0.1872,0.2,0.213,0.2134,0.2137,0,0.1094,0.1144,0.122,0.1287,0.13,0.1354,0.1404,0.1462,0.1577,0.1614,0.1745,0.1841,0.2038,0.1993,0.2191,0.2128,0.2159,0.2196,0.22,0.2018,0.1873,0.1856,0.204,0.218,0.2176,0.2173,0.217,0,0.1118,0.1199,0.1257,0.1287,0.1363,0.1399,0.1434,0.1504,0.1559,0.1736,0.1805,0.2008,0.2145,0.2249,0.2322,0.2299,0.2499,0.244,0.2348,0.2337,0.2174,0.214,0.2575,0.2575,0.2575,0.2574,0.2574,0,0.1165,0.1238,0.1284,0.1347,0.1414,0.1446,0.1526,0.157,0.1672,0.1755,0.19,0.2033,0.2227,0.2351,0.2395,0.245,0.254,0.2434,0.2396,0.2243,0.2215,0.2322,0.2291,0.2581,0.2579,0.2578,0.2577,0,0.1245,0.1262,0.1351,0.1424,0.145,0.1511,0.1584,0.1624,0.1709,0.1834,0.1927,0.2128,0.2312,0.2415,0.2589,0.2523,0.259,0.2556,0.2364,0.23,0.2384,0.2362,0.2564,0.2561,0.2559,0.2557,0.2555,0,0.1313,0.1354,0.1426,0.1446,0.1502,0.1572,0.1596,0.1659,0.1689,0.1872,0.1937,0.2193,0.2286,0.2461,0.2505,0.2561,0.2575,0.2363,0.2283,0.2453,0.2395,0.2376,0.2358,0.2177,0.2173,0.2169,0.2166,0,0.1423,0.1424,0.1477,0.1495,0.1528,0.1569,0.1618,0.1642,0.1702,0.1799,0.193,0.205,0.2247,0.2299,0.2342,0.2321,0.2353,0.2285,0.2559,0.2166,0.2091,0.2032,0.2027,0.2132,0.2136,0.2138,0.214,0.2141,0.1483,0.1484,0.1465,0.1485,0.1525,0.1516,0.1518,0.1558,0.1602,0.1706,0.1853,0.1941,0.2038,0.2087,0.2062,0.2062,0.221,0.2095,0.2108,0.2124,0.201,0.193,0.1923,0.1925,0.1926,0.1928,0.1929,0,0.1415,0.1392,0.1428,0.1394,0.1397,0.1457,0.1471,0.1444,0.1464,0.1609,0.1715,0.1611,0.1683,0.1787,0.1775,0.1759,0.1732,0.1664,0.1656,0.169,0.1721,0.1585,0.1387,0.1385,0.1384,0.1382,0,0,0.1359,0.128,0.1262,0.1213,0.1255,0.1231,0.1233,0.1257,0.1314,0.134,0.1401,0.1606,0.1687,0.1516,0.1521,0.1478,0.1549,0.1392,0.1829,0.1853,0.188,0.1975,0.1805,0,0,0,0,0]},{"header":{"parameterUnit":"m.s-1","parameterCategory":2,"la1":30.2991,"la2":30.254,"lo1":-89.0895,"lo2":-89.0444,"dy":0.0017,"dx":0.0017,"nx":28,"ny":28,"refTime":"2024-07-06T09:00:00:Z","depth":"2","parameterNumber":3,"parameterNumberName":"V-component_of_CURRENTS"},"data":[0,0,0,0,0,0,0,0,0,0,0,0,0,0,0,0,0,0,0,0,0,0,0,0,0,0,0,0,0,0,0,0,0,0,0,0,0,0,0,0,0,0,0,0,0,0,0,0,0,0,0,0,0,0,0,0,0,0,-0.0527,-0.0527,0,-0.0553,-0.0554,-0.0554,-0.0571,-0.0571,-0.0571,-0.057,-0.0641,-0.0643,-0.0645,0,0,0,0,0,0,0,0,0,0,0,0,0,-0.0484,-0.0485,-0.0527,-0.0527,-0.0527,-0.0553,-0.0554,-0.0554,-0.0571,-0.0571,-0.0571,-0.057,-0.064,-0.0643,-0.0645,0,0,0,0,0,0,0,0,0,0,0,0,0,-0.0507,-0.0485,-0.0527,-0.0537,-0.0538,-0.0553,-0.0554,-0.0554,-0.0571,-0.0571,-0.057,-0.057,-0.064,-0.0642,-0.0645,-0.0666,0,0,-0.0654,-0.0656,0,0,0,0,0,0,0,0,-0.0506,-0.0509,-0.0536,-0.0537,-0.0538,-0.0557,-0.0564,-0.0593,-0.0571,-0.0561,-0.057,-0.057,-0.0616,-0.0621,-0.0628,-0.0669,-0.0672,-0.0655,-0.0656,-0.0658,-0.0658,0,0,0,0,0,0,0,-0.0504,-0.0508,-0.0539,-0.0536,-0.0537,-0.0538,-0.0541,-0.057,-0.0591,-0.0561,-0.0562,-0.0562,-0.0617,-0.0625,-0.063,-0.0673,-0.0654,-0.0657,-0.0659,-0.066,-0.0689,-0.0688,0,0,0,0,0,0,-0.0498,-0.0507,-0.0539,-0.054,-0.0519,-0.0538,-0.0542,-0.0552,-0.059,-0.0594,-0.0562,-0.0563,-0.062,-0.0626,-0.0632,-0.0597,-0.0658,-0.066,-0.0662,-0.069,-0.0689,-0.0688,0,0,0,0,0,0,-0.0497,-0.0501,-0.0538,-0.0522,-0.0526,-0.0539,-0.055,-0.0553,-0.0548,-0.0589,-0.0595,-0.0552,-0.062,-0.0628,-0.0656,-0.0602,-0.0662,-0.0664,-0.0691,-0.069,-0.0688,-0.0566,0,0,0,0,0,0,-0.0496,-0.0501,-0.0502,-0.0522,-0.0527,-0.0537,-0.055,-0.0554,-0.0548,-0.0548,-0.0583,-0.059,-0.0621,-0.0652,-0.0659,-0.0607,-0.0667,-0.0693,-0.0691,-0.0689,-0.0571,-0.0561,-0.0552,0,0,0,0,0,-0.0494,-0.0501,-0.0503,-0.0506,-0.053,-0.0536,-0.0539,-0.0549,-0.0547,-0.0544,-0.0573,-0.0588,-0.0644,-0.0654,-0.0663,-0.061,-0.0693,-0.0691,-0.0689,-0.0576,-0.0563,-0.0552,0,0,0,0,0,0,-0.0482,-0.0504,-0.0506,-0.0519,-0.052,-0.0538,-0.0538,-0.0538,-0.0556,-0.056,-0.0593,-0.0603,-0.0593,-0.0634,-0.0644,-0.0615,-0.0664,-0.0663,-0.0575,-0.0563,-0.0553,-0.052,-0.0669,0,0,0,0,0,-0.048,-0.0493,-0.0503,-0.0511,-0.051,-0.0518,-0.0519,-0.0525,-0.0544,-0.055,-0.0564,-0.0586,-0.0593,-0.0606,-0.0622,-0.0627,-0.0658,-0.0595,-0.0585,-0.0576,-0.0557,-0.0571,-0.056,-0.0681,-0.0681,-0.0681,0,0,-0.0482,-0.049,-0.05,-0.0509,-0.0513,-0.05,-0.0519,-0.052,-0.0499,-0.0558,-0.0535,-0.055,-0.0586,-0.0574,-0.0573,-0.0603,-0.056,-0.0574,-0.0565,-0.055,-0.0568,-0.0556,-0.0545,-0.0679,-0.0679,-0.068,0,0,-0.0475,-0.0492,-0.0492,-0.0482,-0.048,-0.0489,-0.0481,-0.0483,-0.0474,-0.0466,-0.0485,-0.0488,-0.0498,-0.0513,-0.0522,-0.0478,-0.05,-0.0458,-0.0387,-0.0401,-0.0391,-0.0382,-0.041,-0.0405,-0.0461,-0.0461,-0.0461,0,-0.0465,-0.047,-0.049,-0.0465,-0.0462,-0.0474,-0.0461,-0.0446,-0.045,-0.0448,-0.0445,-0.0425,-0.047,-0.044,-0.0416,-0.0452,-0.0456,-0.0426,-0.0386,-0.0378,-0.0371,-0.0402,-0.0397,-0.0455,-0.0456,-0.0456,-0.0457,0,-0.0458,-0.0439,-0.0434,-0.0415,-0.0416,-0.0408,-0.0397,-0.0398,-0.0388,-0.0363,-0.0316,-0.0338,-0.0326,-0.0326,-0.0357,-0.0307,-0.0324,-0.0362,-0.041,-0.0351,-0.0388,-0.0385,-0.0446,-0.0448,-0.045,-0.0452,0,0,-0.0479,-0.0438,-0.0431,-0.04,-0.0392,-0.0387,-0.0379,-0.0372,-0.0359,-0.0297,-0.0231,-0.0227,-0.0195,-0.0202,-0.021,-0.0217,-0.0191,-0.0247,-0.0251,-0.0262,-0.0204,-0.0292,-0.0299,-0.0198,-0.0197,-0.0196,-0.025,0,-0.0459,-0.0405,-0.041,-0.0357,-0.0326,-0.0352,-0.034,-0.0331,-0.0324,-0.0254,-0.0201,-0.0131,-0.015,-0.0116,-0.0112,-0.0162,-0.0176,-0.0172,-0.027,-0.0273,-0.0348,-0.0297,-0.026,-0.0311,-0.0249,-0.0248,-0.0248,0,-0.0452,-0.0408,-0.0361,-0.0319,-0.0315,-0.0286,-0.0313,-0.0298,-0.0239,-0.0224,-0.0131,-0.0055,0.0017,-0.0011,-0.0039,-0.0018,-0.0092,-0.0144,-0.0149,-0.0267,-0.0356,-0.0361,-0.031,-0.0245,-0.0245,-0.0246,-0.0246,0,-0.0447,-0.0382,-0.0347,-0.0323,-0.028,-0.0276,-0.0268,-0.0273,-0.0252,-0.0154,-0.0104,-0.0,0.0092,0.0045,-0.0031,-0.0018,-0.0084,-0.0109,-0.0262,-0.027,-0.0281,-0.0293,-0.0151,-0.0151,-0.015,-0.015,-0.015,0,-0.0425,-0.0377,-0.0319,-0.0273,-0.0229,-0.0226,-0.0192,-0.0211,-0.0158,-0.0091,-0.0028,0.007,0.0119,0.0114,0.001,-0.0114,-0.0068,-0.0231,-0.0281,-0.0242,-0.0249,-0.0229,-0.0237,-0.0152,-0.0152,-0.0152,-0.0151,0,-0.0392,-0.0367,-0.0295,-0.0233,-0.0205,-0.0165,-0.0104,-0.0094,-0.0084,0.0014,0.0081,0.0173,0.0157,0.0108,0.0024,-0.0077,-0.0211,-0.029,-0.025,-0.0294,-0.0388,-0.039,-0.0418,-0.0422,-0.0424,-0.0427,-0.0429,0,-0.0368,-0.0333,-0.024,-0.0207,-0.0156,-0.0086,-0.0058,-0.0036,-0.0006,0.0063,0.014,0.0196,0.0224,0.0057,-0.0074,-0.0271,-0.0292,-0.0407,-0.0397,-0.0365,-0.0411,-0.0408,-0.0406,-0.0361,-0.0362,-0.0363,-0.0364,0,-0.0334,-0.0311,-0.0259,-0.0174,-0.0115,-0.0029,0.0046,0.0104,0.0127,0.0197,0.0277,0.0306,0.0189,0.0082,-0.0186,-0.0324,-0.0362,-0.0438,-0.0397,-0.0316,-0.0321,-0.0363,-0.036,-0.0373,-0.0372,-0.0371,-0.0371,-0.0371,-0.0337,-0.0304,-0.0267,-0.0177,-0.0097,0.0021,0.0128,0.0208,0.0308,0.0448,0.0411,0.0444,0.0255,-0.0016,-0.0254,-0.0455,-0.0448,-0.0522,-0.0514,-0.0506,-0.0507,-0.0518,-0.0607,-0.0608,-0.0608,-0.0608,-0.0609,0,-0.0384,-0.0358,-0.0283,-0.0173,-0.0053,0.0006,0.0171,0.0291,0.0467,0.0548,0.0625,0.044,0.0248,0.0016,-0.0283,-0.0523,-0.0492,-0.0595,-0.0485,-0.0477,-0.0469,-0.0463,-0.0555,-0.0555,-0.0555,-0.0556,0,0,-0.0431,-0.0415,-0.0353,-0.0176,-0.005,0.0147,0.0282,0.0462,0.0574,0.071,0.0746,0.0701,0.0337,0.0133,-0.0173,-0.0347,-0.0357,-0.0389,-0.0412,-0.0241,-0.0229,-0.0417,-0.0399,0,0,0,0,0]}],[{"header":{"parameterUnit":"m.s-1","parameterCategory":2,"la1":30.2991,"la2":30.254,"lo1":-89.0895,"lo2":-89.0444,"dy":0.0017,"dx":0.0017,"nx":28,"ny":28,"refTime":"2024-07-06T09:00:00:Z","depth":"4","parameterNumber":2,"parameterNumberName":"U-component_of_CURRENTS"},"data":[0,0,0,0,0,0,0,0,0,0,0,0,0,0,0,0,0,0,0,0,0,0,0,0,0,0,0,0,0,0,0,0,0,0,0,0,0,0,0,0,0,0,0,0,0,0,0,0,0,0,0,0,0,0,0,0,0,0,0.0439,0.0439,0,0.0463,0.0463,0.0463,0.0487,0.0487,0.0488,0.0488,0.0559,0.056,0.0562,0,0,0,0,0,0,0,0,0,0,0,0,0,0.0399,0.04,0.0439,0.0439,0.044,0.0463,0.0463,0.0463,0.0487,0.0487,0.0488,0.0489,0.0559,0.056,0.0562,0,0,0,0,0,0,0,0,0,0,0,0,0,0.0417,0.04,0.0439,0.0456,0.0458,0.0463,0.0463,0.0463,0.0487,0.0487,0.0488,0.0489,0.0558,0.056,0.0562,0.0558,0,0,0.0568,0.0569,0,0,0,0,0,0,0,0,0.0416,0.0418,0.0453,0.0455,0.0457,0.0475,0.0475,0.0498,0.0486,0.0473,0.0488,0.0489,0.0536,0.054,0.0538,0.0561,0.0564,0.0568,0.057,0.0571,0.0571,0,0,0,0,0,0,0,0.0414,0.0417,0.0445,0.0454,0.0456,0.0459,0.0462,0.0479,0.0498,0.0474,0.0477,0.0483,0.0538,0.0536,0.054,0.0565,0.0568,0.057,0.0571,0.0572,0.0661,0.0663,0,0,0,0,0,0,0.0417,0.0416,0.0445,0.0447,0.0441,0.0459,0.0463,0.0466,0.0497,0.0503,0.0483,0.0485,0.0532,0.0538,0.0543,0.061,0.0571,0.0572,0.0574,0.066,0.0662,0.0663,0,0,0,0,0,0,0.0416,0.0419,0.0444,0.0434,0.0438,0.0459,0.0463,0.0466,0.0493,0.0504,0.051,0.0509,0.0533,0.054,0.059,0.061,0.0573,0.0575,0.0659,0.0661,0.0662,0.0698,0,0,0,0,0,0,0.0414,0.0418,0.0433,0.0434,0.0439,0.0472,0.0463,0.0466,0.0495,0.0498,0.0528,0.0534,0.0534,0.0587,0.0592,0.0612,0.0577,0.0658,0.066,0.0662,0.0696,0.0701,0.0706,0,0,0,0,0,0.0413,0.0422,0.0433,0.0438,0.0454,0.0473,0.0476,0.0492,0.0496,0.0516,0.0539,0.0534,0.0604,0.059,0.0596,0.0617,0.0656,0.0659,0.0662,0.0694,0.07,0.0706,0,0,0,0,0,0,0.041,0.0426,0.0438,0.0452,0.0476,0.0479,0.0496,0.0507,0.0537,0.0546,0.0554,0.0562,0.0606,0.0612,0.0596,0.0649,0.0627,0.0631,0.0649,0.0656,0.0661,0.0658,0.0579,0,0,0,0,0,0.0417,0.0431,0.045,0.0465,0.0478,0.0493,0.0506,0.052,0.0541,0.0555,0.0571,0.0593,0.0615,0.0638,0.0652,0.069,0.0696,0.0706,0.0711,0.0715,0.0717,0.075,0.0758,0.0671,0.0671,0.0671,0,0,0.0421,0.0431,0.0441,0.0467,0.0482,0.0506,0.0503,0.0531,0.0556,0.0558,0.0598,0.061,0.0628,0.0664,0.0685,0.0678,0.0744,0.0718,0.0722,0.0722,0.0754,0.0762,0.077,0.0673,0.0673,0.0673,0,0,0.0424,0.0446,0.0458,0.048,0.0513,0.0529,0.0546,0.0566,0.0585,0.0625,0.0629,0.0663,0.0693,0.0711,0.0724,0.0769,0.0764,0.077,0.0802,0.0834,0.0842,0.0848,0.087,0.0878,0.078,0.078,0.078,0,0.0434,0.0448,0.0467,0.0485,0.0512,0.0544,0.0572,0.0592,0.0628,0.065,0.0647,0.0689,0.0714,0.0754,0.0775,0.0781,0.0792,0.0777,0.0841,0.0847,0.0853,0.0874,0.0882,0.0782,0.0781,0.0781,0.0781,0,0.0434,0.0464,0.0474,0.0512,0.0545,0.0576,0.0613,0.0656,0.0682,0.0691,0.0732,0.0749,0.0782,0.0789,0.0802,0.0854,0.0846,0.0837,0.0824,0.0864,0.0883,0.0892,0.0785,0.0784,0.0783,0.0783,0,0,0.0418,0.0468,0.0476,0.0507,0.0568,0.0593,0.0656,0.0713,0.0752,0.0768,0.0803,0.0837,0.0839,0.0854,0.0862,0.089,0.0955,0.089,0.0891,0.0908,0.1021,0.0972,0.0976,0.0956,0.0958,0.0959,0.1019,0,0.0424,0.0459,0.0491,0.0551,0.0579,0.0646,0.0696,0.0753,0.0797,0.0838,0.0847,0.0884,0.0863,0.0896,0.0913,0.0927,0.0977,0.0939,0.0982,0.0983,0.0932,0.0984,0.0964,0.1025,0.1026,0.1028,0.1029,0,0.0412,0.0445,0.0498,0.0578,0.0599,0.0657,0.0766,0.081,0.0879,0.0907,0.0935,0.0941,0.0974,0.0966,0.0996,0.0969,0.1019,0.1027,0.103,0.0976,0.0949,0.0976,0.1043,0.1042,0.1041,0.104,0.1039,0,0.0379,0.0451,0.05,0.0526,0.0618,0.0689,0.0759,0.0845,0.0896,0.0973,0.1014,0.1012,0.105,0.1056,0.1066,0.1054,0.1093,0.1082,0.1087,0.1083,0.1091,0.1084,0.1163,0.1163,0.1163,0.1163,0.1163,0,0.036,0.0402,0.0503,0.053,0.0616,0.0688,0.0794,0.0861,0.0955,0.0997,0.1052,0.1081,0.1085,0.1097,0.1088,0.1084,0.1118,0.1102,0.1101,0.1105,0.1099,0.1097,0.1089,0.1165,0.1164,0.1164,0.1164,0,0.0313,0.0369,0.0432,0.0552,0.0605,0.0672,0.0836,0.0882,0.0995,0.1061,0.1097,0.1163,0.1181,0.1166,0.1192,0.1138,0.1128,0.115,0.115,0.1146,0.1096,0.1089,0.115,0.1149,0.1148,0.1147,0.1146,0,0.0288,0.0313,0.0445,0.0494,0.0567,0.069,0.0755,0.089,0.0935,0.1085,0.1084,0.119,0.1211,0.1179,0.1179,0.1159,0.1171,0.1155,0.1133,0.1105,0.1098,0.1092,0.1086,0.1145,0.1145,0.1145,0.1144,0,0.0241,0.0295,0.0347,0.0454,0.0543,0.0623,0.0738,0.0791,0.0913,0.1015,0.1082,0.1131,0.1173,0.1159,0.1177,0.1154,0.1125,0.1145,0.1147,0.1127,0.11,0.1092,0.1087,0.1141,0.1141,0.1142,0.1142,0,0.0203,0.0228,0.0303,0.0398,0.0484,0.054,0.0627,0.071,0.0794,0.0963,0.0974,0.1077,0.1155,0.1163,0.1142,0.1134,0.1137,0.1087,0.1092,0.1096,0.1048,0.1003,0.1027,0,0,0,0,0,0.0154,0.0171,0.0243,0.0335,0.0415,0.0474,0.0582,0.066,0.0798,0.0819,0.0915,0.0954,0.1017,0.1064,0.1049,0.1114,0.1118,0.1091,0.1055,0.1123,0.1127,0.1073,0,0,0,0,0,0,0.0111,0.0154,0.0205,0.026,0.0317,0.0391,0.0462,0.0557,0.0595,0.0742,0.078,0.0887,0.0948,0.1009,0.1025,0.1038,0.0996,0.1157,0.1155,0.1121,0.1124,0.1127,0.1074,0,0,0,0,0]},{"header":{"parameterUnit":"m.s-1","parameterCategory":2,"la1":30.2991,"la2":30.254,"lo1":-89.0895,"lo2":-89.0444,"dy":0.0017,"dx":0.0017,"nx":28,"ny":28,"refTime":"2024-07-06T09:00:00:Z","depth":"4","parameterNumber":3,"parameterNumberName":"V-component_of_CURRENTS"},"data":[0,0,0,0,0,0,0,0,0,0,0,0,0,0,0,0,0,0,0,0,0,0,0,0,0,0,0,0,0,0,0,0,0,0,0,0,0,0,0,0,0,0,0,0,0,0,0,0,0,0,0,0,0,0,0,0,0,0,0.0073,0.0073,0,0.0029,0.0029,0.0028,-0.0085,-0.0087,-0.0089,-0.0092,-0.0243,-0.0245,-0.0247,0,0,0,0,0,0,0,0,0,0,0,0,0,0.0006,0.0008,0.0073,0.0073,0.0072,0.0029,0.0029,0.0028,-0.0084,-0.0087,-0.009,-0.0093,-0.0243,-0.0245,-0.0247,0,0,0,0,0,0,0,0,0,0,0,0,0,0.0006,0.0009,0.0073,0.0011,0.0005,0.0029,0.0029,0.0028,-0.0084,-0.0087,-0.0091,-0.0094,-0.0242,-0.0245,-0.0248,-0.0193,0,0,-0.0256,-0.0257,0,0,0,0,0,0,0,0,0.0007,0.0009,0.0021,0.0015,0.0009,-0.0026,-0.0051,-0.0051,-0.0083,-0.005,-0.0092,-0.0096,-0.0178,-0.0186,-0.0185,-0.02,-0.0206,-0.0256,-0.0258,-0.0259,-0.026,0,0,0,0,0,0,0,0.0007,0.001,0.0056,0.002,0.0013,-0.0033,-0.0037,-0.0051,-0.0095,-0.0053,-0.0061,-0.0065,-0.0183,-0.0182,-0.019,-0.0209,-0.0256,-0.0258,-0.026,-0.0261,-0.0372,-0.0373,0,0,0,0,0,0,0.002,0.0011,0.0057,0.0054,-0.0001,-0.0029,-0.0033,-0.0011,-0.0093,-0.0108,-0.0062,-0.007,-0.0176,-0.0186,-0.0196,-0.0276,-0.0259,-0.0261,-0.0263,-0.0371,-0.0372,-0.0374,0,0,0,0,0,0,0.0019,0.0026,0.0059,0.0029,0.003,-0.0023,0.0001,-0.001,-0.0046,-0.0099,-0.0117,-0.0091,-0.0179,-0.0192,-0.0256,-0.0278,-0.0263,-0.0265,-0.0369,-0.0371,-0.0373,-0.0347,0,0,0,0,0,0,0.0018,0.0027,0.0039,0.0032,0.0032,0.0061,0.0004,-0.0008,-0.004,-0.0053,-0.0128,-0.0144,-0.0183,-0.0252,-0.0259,-0.0282,-0.0267,-0.0368,-0.037,-0.0373,-0.0347,-0.0348,-0.035,0,0,0,0,0,0.0016,0.0059,0.0041,0.0045,0.0055,0.0062,0.0058,0.0006,-0.0038,-0.0042,-0.0118,-0.0143,-0.0274,-0.0254,-0.0262,-0.0287,-0.0366,-0.0369,-0.0372,-0.0346,-0.0348,-0.035,0,0,0,0,0,0,0.0038,0.0051,0.0031,0.0075,0.0059,0.0042,0.0038,0.0002,-0.0053,-0.0082,-0.0146,-0.0166,-0.0232,-0.026,-0.0237,-0.033,-0.0328,-0.0333,-0.0306,-0.0308,-0.0309,-0.032,-0.027,0,0,0,0,0,0.0053,0.0083,0.0076,0.0105,0.01,0.0065,0.0056,0.0022,-0.0021,-0.0051,-0.011,-0.018,-0.0237,-0.0276,-0.0319,-0.0354,-0.0375,-0.0382,-0.0384,-0.0384,-0.0402,-0.0438,-0.0443,-0.0384,-0.0384,-0.0383,0,0,0.0068,0.0079,0.0093,0.011,0.0092,0.0081,0.0049,0.0039,-0.0001,-0.0055,-0.0134,-0.0178,-0.0248,-0.0304,-0.0336,-0.0339,-0.041,-0.0388,-0.0388,-0.0406,-0.0441,-0.0447,-0.0452,-0.0386,-0.0385,-0.0385,0,0,0.0107,0.0123,0.0147,0.0138,0.0118,0.0094,0.0085,0.0052,0.0003,-0.0052,-0.0119,-0.0184,-0.0257,-0.0319,-0.0359,-0.0391,-0.0411,-0.0407,-0.0429,-0.0463,-0.0467,-0.0472,-0.0488,-0.0494,-0.0414,-0.0414,-0.0414,0,0.011,0.0152,0.0151,0.0157,0.0147,0.0094,0.0093,0.0044,-0.0018,-0.006,-0.0084,-0.0219,-0.027,-0.0359,-0.0386,-0.0394,-0.0411,-0.041,-0.0462,-0.0467,-0.0473,-0.0488,-0.0495,-0.0413,-0.0413,-0.0413,-0.0413,0,0.0155,0.0174,0.0188,0.0172,0.016,0.016,0.0097,0.0051,-0.0013,-0.0069,-0.0163,-0.0231,-0.0318,-0.0341,-0.0381,-0.0451,-0.0448,-0.0449,-0.0449,-0.0476,-0.0491,-0.0499,-0.0412,-0.0412,-0.0413,-0.0413,0,0,0.0186,0.0215,0.0212,0.0208,0.0171,0.0166,0.0097,0.0032,-0.0022,-0.011,-0.0177,-0.029,-0.0333,-0.0383,-0.0431,-0.0474,-0.0517,-0.0484,-0.0486,-0.0486,-0.0582,-0.0517,-0.0519,-0.0522,-0.0524,-0.0525,-0.0571,0,0.0205,0.024,0.0242,0.0234,0.0237,0.0179,0.0129,0.0051,-0.0027,-0.0108,-0.0215,-0.0293,-0.0351,-0.0384,-0.0444,-0.0505,-0.0541,-0.0505,-0.057,-0.0572,-0.05,-0.0528,-0.0531,-0.0577,-0.0578,-0.058,-0.0581,0,0.0232,0.0252,0.0275,0.027,0.0265,0.024,0.016,0.0109,-0.0023,-0.0077,-0.0189,-0.0271,-0.0394,-0.0405,-0.0546,-0.0521,-0.0559,-0.0592,-0.0594,-0.0553,-0.0523,-0.0552,-0.0595,-0.0594,-0.0593,-0.0592,-0.0591,0,0.0245,0.0268,0.0292,0.0289,0.0269,0.0248,0.0212,0.0108,0.0065,-0.0069,-0.0099,-0.0265,-0.0323,-0.0433,-0.0544,-0.0546,-0.0655,-0.0659,-0.0632,-0.0627,-0.0681,-0.0676,-0.0728,-0.0728,-0.0728,-0.0727,-0.0727,0,0.0264,0.0274,0.03,0.0305,0.0298,0.0276,0.0235,0.0174,0.0101,0.0056,-0.0084,-0.0134,-0.0329,-0.0428,-0.0533,-0.0614,-0.0653,-0.0647,-0.0642,-0.0667,-0.066,-0.0685,-0.0679,-0.0729,-0.0729,-0.0728,-0.0728,0,0.0252,0.0288,0.0301,0.0306,0.0305,0.0284,0.0258,0.0236,0.0175,0.012,0.0082,-0.0051,-0.0177,-0.0343,-0.0497,-0.0563,-0.0662,-0.0664,-0.0673,-0.0665,-0.0614,-0.0607,-0.0659,-0.0658,-0.0656,-0.0655,-0.0654,0,0.0243,0.026,0.0288,0.03,0.0298,0.0281,0.0282,0.0249,0.0237,0.0174,0.0162,0.0043,-0.0064,-0.024,-0.0407,-0.0593,-0.06,-0.0645,-0.0656,-0.0622,-0.0611,-0.0607,-0.0602,-0.0651,-0.0651,-0.0651,-0.065,0,0.0201,0.0221,0.0239,0.0284,0.0301,0.0314,0.0316,0.0318,0.0292,0.0261,0.0216,0.0098,-0.0013,-0.0202,-0.033,-0.0465,-0.0632,-0.063,-0.0634,-0.0645,-0.0613,-0.0603,-0.06,-0.0645,-0.0646,-0.0646,-0.0647,0,0.015,0.0171,0.0228,0.0258,0.0298,0.034,0.0331,0.0344,0.0339,0.0291,0.028,0.0138,0.0043,-0.0129,-0.0261,-0.0385,-0.0415,-0.0451,-0.0466,-0.0473,-0.0408,-0.0339,-0.0291,0,0,0,0,0,0.01,0.0161,0.0201,0.0258,0.0302,0.0328,0.0367,0.0367,0.0361,0.0345,0.0311,0.0202,0.002,-0.0066,-0.0177,-0.0238,-0.0442,-0.0369,-0.0493,-0.0616,-0.0622,-0.0572,0,0,0,0,0,0,0.008,0.0135,0.0204,0.0261,0.0291,0.0349,0.0374,0.037,0.0357,0.0331,0.0232,0.0188,0.0001,0.0071,-0.0181,-0.0218,-0.0304,-0.0461,-0.0462,-0.0613,-0.0618,-0.0623,-0.0574,0,0,0,0,0]}]]